[[{"header":{"parameterUnit":"m.s-1","parameterCategory":2,"la1":30.2991,"la2":30.254,"lo1":-89.0895,"lo2":-89.0444,"dy":0.0017,"dx":0.0017,"nx":28,"ny":28,"refTime":"2026-01-05T03:00:00:Z","depth":"0","parameterNumber":2,"parameterNumberName":"U-component_of_CURRENTS"},"data":[0,0,0,0,0,0,0,0,0,0,0,0,0,0,0,0,0,0,0,0,0,0,0,0,0,0,0,0,0,0,0,0,0,0,0,0,0,0,0,0,0,0,0,0,0,0,0,0,0,0,0,0,0,0,0,0,0,0,-0.3412,-0.3413,0,-0.3491,-0.3491,-0.3492,-0.3482,-0.3481,-0.348,-0.3479,-0.3402,-0.3401,-0.34,0,0,0,0,0,0,0,0,0,0,0,0,0,-0.33,-0.3302,-0.3412,-0.3413,-0.3414,-0.3491,-0.3491,-0.3492,-0.3482,-0.3481,-0.3479,-0.3478,-0.3402,-0.3401,-0.34,0,0,0,0,0,0,0,0,0,0,0,0,0,-0.3359,-0.3303,-0.3412,-0.342,-0.3422,-0.349,-0.3491,-0.3493,-0.3482,-0.3481,-0.3479,-0.3478,-0.3403,-0.3401,-0.34,-0.3423,0,0,-0.3395,-0.3394,0,0,0,0,0,0,0,0,-0.3355,-0.3362,-0.3418,-0.342,-0.3422,-0.3477,-0.3424,-0.3462,-0.3483,-0.3457,-0.3479,-0.3477,-0.3415,-0.3413,-0.343,-0.3419,-0.3416,-0.3395,-0.3394,-0.3393,-0.3393,0,0,0,0,0,0,0,-0.3351,-0.3359,-0.3441,-0.3419,-0.3422,-0.3436,-0.3442,-0.3432,-0.344,-0.3459,-0.3459,-0.3472,-0.3415,-0.3432,-0.3428,-0.3414,-0.3395,-0.3393,-0.3392,-0.3392,-0.3372,-0.3372,0,0,0,0,0,0,-0.3346,-0.3356,-0.3438,-0.3443,-0.3386,-0.344,-0.3446,-0.3459,-0.3443,-0.3441,-0.3473,-0.3471,-0.3435,-0.343,-0.3425,-0.339,-0.3393,-0.3392,-0.3391,-0.3371,-0.3372,-0.3372,0,0,0,0,0,0,-0.3343,-0.3353,-0.3435,-0.3403,-0.3415,-0.3443,-0.3458,-0.3461,-0.3469,-0.3456,-0.345,-0.3476,-0.3434,-0.3427,-0.3405,-0.3389,-0.3391,-0.339,-0.3371,-0.3371,-0.3372,-0.336,0,0,0,0,0,0,-0.334,-0.3351,-0.3347,-0.3403,-0.3416,-0.3448,-0.346,-0.3464,-0.3481,-0.3479,-0.3456,-0.3449,-0.3432,-0.3408,-0.3404,-0.3387,-0.3388,-0.337,-0.3371,-0.3372,-0.3359,-0.336,-0.336,0,0,0,0,0,-0.3335,-0.3301,-0.3347,-0.3356,-0.3414,-0.3448,-0.3455,-0.3469,-0.3482,-0.3473,-0.347,-0.3449,-0.3409,-0.3407,-0.3402,-0.3384,-0.337,-0.3371,-0.3372,-0.3359,-0.336,-0.336,0,0,0,0,0,0,-0.3205,-0.33,-0.3349,-0.3337,-0.3393,-0.3446,-0.3424,-0.3471,-0.3469,-0.3453,-0.3455,-0.3446,-0.3425,-0.3414,-0.3412,-0.3384,-0.3386,-0.3386,-0.3379,-0.3379,-0.3379,-0.3322,-0.3387,0,0,0,0,0,-0.3196,-0.321,-0.3307,-0.3289,-0.3317,-0.3387,-0.3401,-0.3428,-0.3445,-0.3444,-0.344,-0.3432,-0.3431,-0.341,-0.3403,-0.3384,-0.3341,-0.3372,-0.3372,-0.3372,-0.3325,-0.3284,-0.3275,-0.3375,-0.3375,-0.3375,0,0,-0.3132,-0.3189,-0.3191,-0.3268,-0.3303,-0.3321,-0.3386,-0.3396,-0.3401,-0.3433,-0.3404,-0.3432,-0.3431,-0.3412,-0.34,-0.3392,-0.3323,-0.3373,-0.3373,-0.3325,-0.3284,-0.3274,-0.3265,-0.3376,-0.3376,-0.3376,0,0,-0.3016,-0.3075,-0.3064,-0.3118,-0.3193,-0.3244,-0.3253,-0.3324,-0.334,-0.335,-0.338,-0.3396,-0.3381,-0.3387,-0.3387,-0.3384,-0.3335,-0.339,-0.3327,-0.329,-0.328,-0.3271,-0.3201,-0.3186,-0.3378,-0.3378,-0.3378,0,-0.2936,-0.2963,-0.3056,-0.3069,-0.3098,-0.3208,-0.3206,-0.3239,-0.3292,-0.3296,-0.3318,-0.3332,-0.3361,-0.3339,-0.3356,-0.3379,-0.3334,-0.3327,-0.3286,-0.3276,-0.3267,-0.3197,-0.318,-0.3377,-0.3377,-0.3378,-0.3378,0,-0.2847,-0.2871,-0.2854,-0.2929,-0.2963,-0.2973,-0.3064,-0.3083,-0.3134,-0.3176,-0.3177,-0.323,-0.3233,-0.327,-0.3314,-0.3278,-0.3259,-0.3301,-0.3277,-0.3255,-0.3185,-0.3167,-0.3377,-0.3377,-0.3377,-0.3377,0,0,-0.2675,-0.2779,-0.2776,-0.2814,-0.2907,-0.2928,-0.2928,-0.2977,-0.2979,-0.3019,-0.3007,-0.306,-0.3108,-0.3114,-0.3183,-0.3167,-0.3115,-0.3203,-0.3202,-0.3116,-0.2988,-0.2905,-0.2878,-0.3144,-0.3141,-0.3139,-0.2963,0,-0.259,-0.2597,-0.2671,-0.2668,-0.2693,-0.2792,-0.2794,-0.2842,-0.289,-0.2901,-0.2951,-0.2971,-0.3042,-0.3075,-0.3062,-0.3128,-0.3067,-0.3155,-0.3034,-0.3029,-0.2945,-0.2855,-0.2763,-0.2591,-0.2946,-0.2943,-0.2941,0,-0.2506,-0.2535,-0.2526,-0.2604,-0.262,-0.2621,-0.2669,-0.269,-0.2729,-0.2766,-0.2769,-0.2827,-0.2839,-0.2914,-0.2882,-0.2931,-0.293,-0.2953,-0.2947,-0.2848,-0.2912,-0.2673,-0.2546,-0.2556,-0.2913,-0.2915,-0.2917,0,-0.2397,-0.2441,-0.2439,-0.2464,-0.2548,-0.2544,-0.2581,-0.2629,-0.2654,-0.268,-0.2693,-0.2692,-0.2724,-0.27,-0.2773,-0.2818,-0.2715,-0.279,-0.2673,-0.2667,-0.2548,-0.2535,-0.2393,-0.269,-0.269,-0.2691,-0.2691,0,-0.2314,-0.2309,-0.2389,-0.2391,-0.2381,-0.2466,-0.2456,-0.2497,-0.2542,-0.2551,-0.2617,-0.2613,-0.2676,-0.2657,-0.2685,-0.2605,-0.2628,-0.2598,-0.2597,-0.2543,-0.2533,-0.2506,-0.2561,-0.2684,-0.2686,-0.2687,-0.2688,0,-0.2199,-0.2255,-0.2259,-0.2323,-0.2336,-0.2328,-0.2391,-0.2393,-0.2453,-0.246,-0.2469,-0.2535,-0.2501,-0.2517,-0.2504,-0.2493,-0.2396,-0.2403,-0.2317,-0.2307,-0.2197,-0.2256,-0.2069,-0.2003,-0.2204,-0.22,-0.2197,0,-0.2142,-0.2134,-0.2187,-0.2187,-0.2209,-0.2223,-0.2237,-0.2324,-0.2343,-0.2408,-0.2402,-0.2388,-0.2359,-0.2272,-0.2234,-0.2147,-0.223,-0.2037,-0.2104,-0.2108,-0.2175,-0.2236,-0.2201,-0.1944,-0.1939,-0.1935,-0.1932,0,-0.2023,-0.2045,-0.2053,-0.2061,-0.207,-0.2089,-0.2121,-0.2136,-0.2238,-0.2248,-0.2255,-0.2231,-0.2142,-0.2034,-0.1939,-0.1896,-0.1992,-0.1951,-0.198,-0.1938,-0.1968,-0.1934,-0.2143,-0.1898,-0.1902,-0.1904,-0.1906,-0.1907,-0.1921,-0.1901,-0.192,-0.1914,-0.1932,-0.1946,-0.1925,-0.1987,-0.2001,-0.2003,-0.2077,-0.2006,-0.1952,-0.1788,-0.1723,-0.1611,-0.1693,-0.1617,-0.1677,-0.1731,-0.1684,-0.1788,-0.1546,-0.1547,-0.1549,-0.155,-0.1551,0,-0.1785,-0.1781,-0.1775,-0.1774,-0.1751,-0.1809,-0.1834,-0.1783,-0.1761,-0.1779,-0.176,-0.1753,-0.1634,-0.1586,-0.1484,-0.1409,-0.1387,-0.1396,-0.148,-0.1448,-0.1537,-0.1545,-0.1262,-0.1262,-0.1262,-0.1262,-0.1262,-0.1262,-0.1714,-0.1659,-0.1663,-0.1585,-0.1591,-0.1541,-0.1533,-0.1458,-0.1423,-0.1342,-0.1356,-0.1345,-0.1419,-0.1594,-0.1482,-0.1386,-0.1385,-0.132,-0.1358,-0.148,-0.1508,-0.1534,-0.1552,-0.1276,-0.1276,-0.1212,-0.1212,-0.1212]},{"header":{"parameterUnit":"m.s-1","parameterCategory":2,"la1":30.2991,"la2":30.254,"lo1":-89.0895,"lo2":-89.0444,"dy":0.0017,"dx":0.0017,"nx":28,"ny":28,"refTime":"2026-01-05T03:00:00:Z","depth":"0","parameterNumber":3,"parameterNumberName":"V-component_of_CURRENTS"},"data":[0,0,0,0,0,0,0,0,0,0,0,0,0,0,0,0,0,0,0,0,0,0,0,0,0,0,0,0,0,0,0,0,0,0,0,0,0,0,0,0,0,0,0,0,0,0,0,0,0,0,0,0,0,0,0,0,0,0,-0.0269,-0.0267,0,-0.0053,-0.005,-0.0048,0.0059,0.0059,0.0059,0.0059,0.0325,0.0331,0.0338,0,0,0,0,0,0,0,0,0,0,0,0,0,-0.0486,-0.0484,-0.0269,-0.0266,-0.0264,-0.0053,-0.005,-0.0047,0.0059,0.0059,0.0059,0.0059,0.0322,0.0331,0.0339,0,0,0,0,0,0,0,0,0,0,0,0,0,-0.0344,-0.0483,-0.027,-0.0185,-0.0175,-0.0054,-0.005,-0.0046,0.0059,0.0059,0.0059,0.0059,0.032,0.033,0.034,0.0404,0,0,0.0372,0.0377,0,0,0,0,0,0,0,0,-0.0352,-0.0336,-0.02,-0.019,-0.0179,-0.0023,-0.0029,0.0107,0.0059,-0.003,0.0059,0.0059,0.0213,0.0232,0.0272,0.0416,0.0427,0.0373,0.038,0.0384,0.0387,0,0,0,0,0,0,0,-0.0363,-0.0344,-0.0184,-0.0197,-0.0184,-0.0122,-0.0103,-0.0003,0.0089,-0.0023,-0.0014,0.0011,0.0219,0.0261,0.0279,0.0431,0.0373,0.0382,0.0389,0.0393,0.0611,0.0611,0,0,0,0,0,0,-0.0393,-0.0354,-0.0191,-0.0177,-0.0267,-0.0118,-0.0097,-0.0074,0.0087,0.0111,0.001,0.0015,0.0243,0.0266,0.0288,0.0323,0.0384,0.0394,0.04,0.0612,0.0611,0.0611,0,0,0,0,0,0,-0.0399,-0.0381,-0.02,-0.026,-0.0233,-0.0116,-0.009,-0.007,-0.003,0.0112,0.0137,0.0029,0.0244,0.0274,0.0363,0.0336,0.0399,0.0408,0.0612,0.0612,0.0611,0.0425,0,0,0,0,0,0,-0.0406,-0.0384,-0.0382,-0.0263,-0.0231,-0.0152,-0.0089,-0.0065,-0.0014,-0.0006,0.0136,0.0161,0.0246,0.0346,0.0373,0.0352,0.0417,0.0613,0.0612,0.0611,0.0432,0.0418,0.0406,0,0,0,0,0,-0.0415,-0.0415,-0.0384,-0.0364,-0.0231,-0.0153,-0.0132,-0.0047,-0.0014,-0.0009,0.0089,0.0156,0.0359,0.0355,0.0387,0.0367,0.0613,0.0612,0.0611,0.0438,0.0421,0.0407,0,0,0,0,0,0,-0.0499,-0.04,-0.0364,-0.0332,-0.026,-0.0136,-0.0117,-0.0057,0.0026,0.0033,0.0163,0.0195,0.0261,0.0345,0.0337,0.0428,0.0493,0.0498,0.035,0.0336,0.0323,0.0303,0.0425,0,0,0,0,0,-0.052,-0.0499,-0.0394,-0.037,-0.0343,-0.0233,-0.0191,-0.0136,-0.0043,-0.0006,0.0092,0.0196,0.0284,0.0331,0.0425,0.0482,0.0563,0.0488,0.0475,0.0463,0.0469,0.0558,0.0553,0.0607,0.0607,0.0607,0,0,-0.0542,-0.0487,-0.0473,-0.0388,-0.0325,-0.0297,-0.0209,-0.0159,-0.0137,0.0011,0.0065,0.0161,0.0291,0.0347,0.0383,0.0412,0.0486,0.0462,0.0451,0.0463,0.0557,0.0551,0.0547,0.0606,0.0606,0.0606,0,0,-0.0581,-0.0535,-0.0533,-0.0489,-0.0411,-0.035,-0.0345,-0.0237,-0.0195,-0.0127,-0.0023,0.0057,0.0194,0.0274,0.0335,0.0314,0.0419,0.0335,0.0253,0.0337,0.0333,0.0331,0.0399,0.0405,0.0323,0.0323,0.0323,0,-0.0612,-0.0591,-0.0522,-0.0512,-0.0482,-0.0387,-0.038,-0.0328,-0.0207,-0.0168,-0.0139,0.0062,0.0159,0.0244,0.0225,0.0283,0.0345,0.0292,0.0318,0.0317,0.0318,0.039,0.0398,0.0314,0.0315,0.0316,0.0317,0,-0.0645,-0.0634,-0.0633,-0.0595,-0.0562,-0.0543,-0.0467,-0.0436,-0.0377,-0.0303,-0.0213,-0.0082,0.004,0.0067,0.0142,0.0191,0.0237,0.0289,0.0346,0.0301,0.038,0.0392,0.0301,0.0304,0.0307,0.0309,0,0,-0.0685,-0.0661,-0.066,-0.066,-0.0605,-0.0576,-0.0565,-0.0502,-0.0473,-0.0387,-0.033,-0.0209,-0.0132,-0.0057,0.0041,0.0105,0.0146,0.018,0.0189,0.0228,0.0321,0.0365,0.0384,0.0197,0.0198,0.02,0.0363,0,-0.0726,-0.0744,-0.0713,-0.0729,-0.073,-0.0665,-0.0655,-0.0594,-0.0523,-0.0453,-0.0337,-0.0241,-0.0183,-0.0122,-0.0059,0.0122,0.0174,0.0097,0.0378,0.0386,0.0416,0.0398,0.0438,0.0588,0.0375,0.0377,0.0379,0,-0.076,-0.0768,-0.0797,-0.0788,-0.0781,-0.078,-0.0733,-0.0707,-0.0605,-0.0544,-0.0453,-0.0342,-0.0227,-0.0172,0.0055,0.0002,0.0135,0.0255,0.0266,0.0387,0.0454,0.0609,0.0619,0.0786,0.0399,0.0397,0.0396,0,-0.0813,-0.0821,-0.0851,-0.0848,-0.0827,-0.0827,-0.0809,-0.0732,-0.0695,-0.0591,-0.0537,-0.0396,-0.0288,-0.0129,0.0099,0.0084,0.0357,0.0379,0.0538,0.0542,0.0676,0.069,0.0872,0.0525,0.0525,0.0524,0.0524,0,-0.086,-0.088,-0.0882,-0.0896,-0.0921,-0.0884,-0.0879,-0.0836,-0.0755,-0.0696,-0.0587,-0.0492,-0.027,-0.0087,0.0087,0.0353,0.0351,0.0529,0.0592,0.061,0.0615,0.0849,0.0904,0.0531,0.0529,0.0528,0.0527,0,-0.0906,-0.091,-0.0942,-0.0946,-0.0948,-0.0963,-0.0934,-0.0916,-0.0841,-0.0758,-0.0724,-0.0535,-0.0297,-0.0075,0.0231,0.0366,0.0718,0.0694,0.0687,0.0745,0.1017,0.1058,0.1323,0.1435,0.0882,0.0885,0.0886,0,-0.0927,-0.0953,-0.0984,-0.1006,-0.1011,-0.1023,-0.1024,-0.0965,-0.0933,-0.0767,-0.0723,-0.0489,-0.0296,0.0133,0.0416,0.072,0.0849,0.0929,0.0905,0.1043,0.1137,0.1166,0.1243,0.1006,0.1009,0.1011,0.1013,0,-0.0964,-0.0978,-0.1005,-0.1059,-0.1079,-0.1093,-0.1085,-0.1066,-0.0967,-0.0861,-0.067,-0.0501,-0.0108,0.0265,0.0634,0.0818,0.105,0.0982,0.115,0.1266,0.1291,0.1425,0.0871,0.1032,0.103,0.1029,0.1028,0.1027,-0.0979,-0.1012,-0.1053,-0.1099,-0.1128,-0.1138,-0.1105,-0.1038,-0.0941,-0.0695,-0.0613,-0.0268,0.0146,0.0676,0.0878,0.1287,0.124,0.1414,0.1458,0.1479,0.1573,0.104,0.1251,0.1251,0.125,0.125,0.1249,0,-0.0988,-0.103,-0.1085,-0.1134,-0.1167,-0.117,-0.1116,-0.1007,-0.0822,-0.058,-0.0342,0.0163,0.0617,0.1014,0.1519,0.175,0.1804,0.1865,0.1928,0.1989,0.1559,0.155,0.1804,0.1804,0.1804,0.1804,0.1804,0.1803,-0.0991,-0.1046,-0.1082,-0.1145,-0.1176,-0.1124,-0.1063,-0.0834,-0.0616,-0.0167,0.0192,0.0421,0.0906,0.164,0.2129,0.2184,0.2389,0.2365,0.2478,0.2178,0.2139,0.2102,0.2109,0.2476,0.2477,0.291,0.2914,0.2918]}],[{"header":{"parameterUnit":"m.s-1","parameterCategory":2,"la1":30.2991,"la2":30.254,"lo1":-89.0895,"lo2":-89.0444,"dy":0.0017,"dx":0.0017,"nx":28,"ny":28,"refTime":"2026-01-05T03:00:00:Z","depth":"2","parameterNumber":2,"parameterNumberName":"U-component_of_CURRENTS"},"data":[0,0,0,0,0,0,0,0,0,0,0,0,0,0,0,0,0,0,0,0,0,0,0,0,0,0,0,0,0,0,0,0,0,0,0,0,0,0,0,0,0,0,0,0,0,0,0,0,0,0,0,0,0,0,0,0,0,0,-0.2532,-0.2533,0,-0.2557,-0.2557,-0.2557,-0.2546,-0.2546,-0.2546,-0.2546,-0.2592,-0.2594,-0.2595,0,0,0,0,0,0,0,0,0,0,0,0,0,-0.2473,-0.2474,-0.2532,-0.2533,-0.2534,-0.2557,-0.2557,-0.2557,-0.2546,-0.2546,-0.2546,-0.2546,-0.2592,-0.2593,-0.2595,0,0,0,0,0,0,0,0,0,0,0,0,0,-0.2493,-0.2474,-0.2532,-0.2535,-0.2536,-0.2557,-0.2557,-0.2557,-0.2546,-0.2546,-0.2546,-0.2546,-0.2591,-0.2593,-0.2595,-0.2611,0,0,-0.2601,-0.2602,0,0,0,0,0,0,0,0,-0.2492,-0.2495,-0.2534,-0.2535,-0.2536,-0.2553,-0.2554,-0.2578,-0.2546,-0.2537,-0.2546,-0.2545,-0.2585,-0.2587,-0.2584,-0.2614,-0.2616,-0.2602,-0.2603,-0.2604,-0.2604,0,0,0,0,0,0,0,-0.2491,-0.2494,-0.2537,-0.2535,-0.2536,-0.2535,-0.2537,-0.2558,-0.2558,-0.2537,-0.2538,-0.2549,-0.2585,-0.2582,-0.2586,-0.2616,-0.2602,-0.2603,-0.2605,-0.2605,-0.2659,-0.2659,0,0,0,0,0,0,-0.2499,-0.2493,-0.2536,-0.2538,-0.2519,-0.2537,-0.2539,-0.2543,-0.2557,-0.256,-0.255,-0.2549,-0.2579,-0.2583,-0.2587,-0.2613,-0.2604,-0.2606,-0.2607,-0.2659,-0.2659,-0.2659,0,0,0,0,0,0,-0.2498,-0.2502,-0.2535,-0.252,-0.2525,-0.2539,-0.2543,-0.2544,-0.2549,-0.2567,-0.2569,-0.2555,-0.2579,-0.2585,-0.2616,-0.2614,-0.2606,-0.2608,-0.2659,-0.2659,-0.2659,-0.2661,0,0,0,0,0,0,-0.2496,-0.2501,-0.2505,-0.2521,-0.2527,-0.2541,-0.2544,-0.2545,-0.2559,-0.2558,-0.2573,-0.2576,-0.2579,-0.2613,-0.2618,-0.2617,-0.261,-0.2658,-0.2659,-0.2659,-0.266,-0.2661,-0.2662,0,0,0,0,0,-0.2493,-0.2493,-0.2505,-0.251,-0.2531,-0.2542,-0.2543,-0.2549,-0.2559,-0.2554,-0.2578,-0.2576,-0.2618,-0.2616,-0.2621,-0.2621,-0.2658,-0.2659,-0.2659,-0.266,-0.2661,-0.2662,0,0,0,0,0,0,-0.2463,-0.2494,-0.2506,-0.2514,-0.2528,-0.2542,-0.2542,-0.2556,-0.2569,-0.2573,-0.259,-0.2596,-0.2613,-0.2624,-0.2621,-0.2636,-0.2633,-0.2635,-0.2632,-0.2633,-0.2634,-0.2629,-0.2612,0,0,0,0,0,-0.2463,-0.2471,-0.2499,-0.2504,-0.2514,-0.2533,-0.254,-0.2547,-0.2566,-0.257,-0.2589,-0.2607,-0.2618,-0.2633,-0.2639,-0.2665,-0.2644,-0.2664,-0.2665,-0.2665,-0.2665,-0.2636,-0.2633,-0.2661,-0.2661,-0.2661,0,0,-0.2452,-0.2471,-0.2475,-0.2499,-0.251,-0.2527,-0.2534,-0.2545,-0.2562,-0.2576,-0.2603,-0.2608,-0.2623,-0.2637,-0.2647,-0.2651,-0.2644,-0.2666,-0.2666,-0.2666,-0.2636,-0.2633,-0.263,-0.2661,-0.2661,-0.2661,0,0,-0.2433,-0.2453,-0.2454,-0.2474,-0.2501,-0.2519,-0.2527,-0.2551,-0.256,-0.2592,-0.2598,-0.2611,-0.2641,-0.2644,-0.2653,-0.2666,-0.2641,-0.2664,-0.2675,-0.2646,-0.2644,-0.2641,-0.2598,-0.2592,-0.2673,-0.2673,-0.2674,0,-0.2417,-0.2428,-0.2454,-0.2469,-0.2485,-0.252,-0.2528,-0.2551,-0.2583,-0.2587,-0.2599,-0.2622,-0.2641,-0.265,-0.2659,-0.2666,-0.264,-0.2672,-0.2646,-0.2643,-0.264,-0.2597,-0.259,-0.2674,-0.2674,-0.2674,-0.2674,0,-0.2403,-0.242,-0.2423,-0.2458,-0.2479,-0.2487,-0.2533,-0.255,-0.2575,-0.2593,-0.2603,-0.2626,-0.2633,-0.2643,-0.2665,-0.2655,-0.2637,-0.2641,-0.2641,-0.2637,-0.2592,-0.2585,-0.2674,-0.2674,-0.2674,-0.2674,0,0,-0.2328,-0.2398,-0.2395,-0.2414,-0.2471,-0.248,-0.252,-0.2544,-0.2555,-0.2588,-0.2589,-0.2623,-0.2624,-0.2634,-0.2648,-0.2645,-0.2611,-0.2645,-0.2643,-0.2597,-0.2531,-0.2445,-0.2429,-0.2607,-0.2606,-0.2605,-0.2502,0,-0.2299,-0.2323,-0.2368,-0.2391,-0.2406,-0.2459,-0.249,-0.2524,-0.2551,-0.2565,-0.2586,-0.2595,-0.2625,-0.2624,-0.2626,-0.2619,-0.2594,-0.2638,-0.2546,-0.2543,-0.2464,-0.2418,-0.2262,-0.2151,-0.2495,-0.2493,-0.2493,0,-0.2257,-0.2282,-0.2299,-0.2358,-0.2367,-0.239,-0.2424,-0.2458,-0.2499,-0.2519,-0.2533,-0.2551,-0.2566,-0.2584,-0.2556,-0.2581,-0.2553,-0.2544,-0.2539,-0.2455,-0.2444,-0.2214,-0.2124,-0.248,-0.2481,-0.2482,-0.2483,0,-0.2174,-0.2227,-0.2236,-0.2257,-0.2333,-0.2341,-0.2376,-0.2426,-0.2446,-0.2481,-0.2487,-0.2505,-0.2507,-0.2489,-0.2491,-0.2515,-0.2441,-0.2463,-0.2349,-0.2342,-0.2188,-0.2169,-0.2409,-0.2409,-0.241,-0.241,-0.241,0,-0.2117,-0.2121,-0.2196,-0.22,-0.2205,-0.2281,-0.2286,-0.2327,-0.2376,-0.2384,-0.2449,-0.2443,-0.2484,-0.2461,-0.2456,-0.237,-0.2401,-0.2328,-0.2303,-0.2183,-0.2166,-0.2445,-0.2451,-0.2406,-0.2407,-0.2408,-0.2408,0,-0.2022,-0.2075,-0.2088,-0.2154,-0.2168,-0.2169,-0.2234,-0.2241,-0.2304,-0.2312,-0.2322,-0.2382,-0.2348,-0.236,-0.2325,-0.2304,-0.2247,-0.2202,-0.2055,-0.2014,-0.2175,-0.2182,-0.2054,-0.205,-0.2047,-0.2044,-0.2041,0,-0.1974,-0.1973,-0.203,-0.2034,-0.2058,-0.2081,-0.2097,-0.2182,-0.22,-0.2261,-0.2252,-0.2246,-0.2211,-0.2133,-0.2081,-0.2003,-0.2113,-0.1835,-0.1855,-0.2146,-0.2135,-0.2148,-0.2159,-0.1647,-0.1641,-0.1637,-0.1633,0,-0.1877,-0.19,-0.1912,-0.1925,-0.1938,-0.1958,-0.199,-0.1997,-0.2088,-0.2099,-0.2094,-0.2069,-0.1996,-0.1854,-0.1776,-0.1724,-0.1842,-0.1741,-0.2053,-0.1772,-0.1756,-0.1748,-0.1773,-0.1594,-0.1598,-0.1601,-0.1603,-0.1604,-0.179,-0.1776,-0.1797,-0.1795,-0.1816,-0.1816,-0.178,-0.1832,-0.1832,-0.1819,-0.189,-0.1802,-0.1779,-0.1563,-0.1473,-0.1411,-0.1542,-0.1508,-0.1524,-0.1544,-0.1526,-0.1507,-0.1293,-0.1295,-0.1297,-0.1298,-0.13,0,-0.1675,-0.1671,-0.1668,-0.1663,-0.1632,-0.1687,-0.1687,-0.1629,-0.1575,-0.1605,-0.1574,-0.1403,-0.1298,-0.1279,-0.1112,-0.1083,-0.1093,-0.1053,-0.1081,-0.1119,-0.1154,-0.112,-0.0776,-0.0774,-0.0773,-0.0772,0,0,-0.1614,-0.1566,-0.1565,-0.1473,-0.1466,-0.1372,-0.1337,-0.1279,-0.126,-0.1182,-0.1147,-0.1232,-0.1244,-0.1022,-0.0959,-0.0843,-0.0975,-0.0795,-0.1213,-0.1284,-0.1317,-0.1408,-0.1396,0,0,0,0,0]},{"header":{"parameterUnit":"m.s-1","parameterCategory":2,"la1":30.2991,"la2":30.254,"lo1":-89.0895,"lo2":-89.0444,"dy":0.0017,"dx":0.0017,"nx":28,"ny":28,"refTime":"2026-01-05T03:00:00:Z","depth":"2","parameterNumber":3,"parameterNumberName":"V-component_of_CURRENTS"},"data":[0,0,0,0,0,0,0,0,0,0,0,0,0,0,0,0,0,0,0,0,0,0,0,0,0,0,0,0,0,0,0,0,0,0,0,0,0,0,0,0,0,0,0,0,0,0,0,0,0,0,0,0,0,0,0,0,0,0,-0.0365,-0.0364,0,-0.0245,-0.0244,-0.0242,-0.0173,-0.0173,-0.0173,-0.0173,0.0021,0.0026,0.0031,0,0,0,0,0,0,0,0,0,0,0,0,0,-0.046,-0.0459,-0.0365,-0.0363,-0.0362,-0.0245,-0.0244,-0.0242,-0.0174,-0.0173,-0.0173,-0.0173,0.0019,0.0025,0.0031,0,0,0,0,0,0,0,0,0,0,0,0,0,-0.0387,-0.0459,-0.0365,-0.0314,-0.0308,-0.0246,-0.0243,-0.0241,-0.0174,-0.0173,-0.0173,-0.0173,0.0017,0.0025,0.0032,0.007,0,0,0.0055,0.0058,0,0,0,0,0,0,0,0,-0.0392,-0.0384,-0.0323,-0.0317,-0.0311,-0.0224,-0.0206,-0.0134,-0.0174,-0.0225,-0.0173,-0.0172,-0.0054,-0.0041,-0.002,0.0079,0.0088,0.0055,0.006,0.0063,0.0065,0,0,0,0,0,0,0,-0.0397,-0.0388,-0.0317,-0.0321,-0.0314,-0.0271,-0.0261,-0.0192,-0.0142,-0.022,-0.0215,-0.0202,-0.005,-0.0028,-0.0015,0.0091,0.0055,0.0062,0.0066,0.0069,0.0243,0.0243,0,0,0,0,0,0,-0.0416,-0.0393,-0.0321,-0.0314,-0.0351,-0.027,-0.0259,-0.0252,-0.0144,-0.0127,-0.0202,-0.0199,-0.004,-0.0024,-0.0008,0.0046,0.0063,0.007,0.0074,0.0243,0.0243,0.0243,0,0,0,0,0,0,-0.0419,-0.0411,-0.0326,-0.035,-0.0337,-0.0269,-0.0262,-0.025,-0.0226,-0.0131,-0.0113,-0.0191,-0.0039,-0.0018,0.0052,0.0054,0.0073,0.008,0.0243,0.0243,0.0243,0.0154,0,0,0,0,0,0,-0.0422,-0.0413,-0.0415,-0.0352,-0.0336,-0.0294,-0.0262,-0.0248,-0.0219,-0.0213,-0.0115,-0.0097,-0.0038,0.004,0.0059,0.0065,0.0086,0.0243,0.0243,0.0243,0.0156,0.0151,0.0146,0,0,0,0,0,-0.0426,-0.0429,-0.0416,-0.0407,-0.0342,-0.0294,-0.0282,-0.0233,-0.0219,-0.021,-0.0145,-0.01,0.0056,0.0047,0.0069,0.0076,0.0242,0.0243,0.0243,0.0159,0.0152,0.0146,0,0,0,0,0,0,-0.0468,-0.042,-0.0405,-0.0393,-0.0352,-0.0283,-0.027,-0.0239,-0.0182,-0.0176,-0.0092,-0.0069,-0.0011,0.0047,0.0034,0.0127,0.0155,0.016,0.0083,0.0078,0.0073,0.0049,0.0092,0,0,0,0,0,-0.0482,-0.0474,-0.0419,-0.0411,-0.0394,-0.0336,-0.0311,-0.0279,-0.022,-0.0196,-0.0129,-0.0056,0.0009,0.0052,0.0116,0.0174,0.0226,0.0192,0.0187,0.0182,0.0178,0.0258,0.026,0.0245,0.0245,0.0245,0,0,-0.0497,-0.0469,-0.0465,-0.042,-0.0385,-0.0367,-0.032,-0.0289,-0.027,-0.0182,-0.0137,-0.0073,0.0018,0.0075,0.0108,0.0126,0.0212,0.0183,0.0178,0.0176,0.0259,0.026,0.0262,0.0245,0.0245,0.0245,0,0,-0.0523,-0.05,-0.0503,-0.0474,-0.0428,-0.0391,-0.0388,-0.0324,-0.0293,-0.0241,-0.0178,-0.0113,-0.0014,0.0052,0.0099,0.0108,0.0175,0.0125,0.0091,0.0168,0.017,0.0172,0.0225,0.0233,0.013,0.013,0.013,0,-0.0544,-0.0539,-0.0495,-0.0488,-0.047,-0.041,-0.0407,-0.0365,-0.0288,-0.0258,-0.0239,-0.0096,-0.0023,0.0057,0.0055,0.0096,0.014,0.0104,0.016,0.0164,0.0167,0.0222,0.0232,0.0125,0.0126,0.0126,0.0127,0,-0.0567,-0.0564,-0.0563,-0.0539,-0.0514,-0.0501,-0.0444,-0.0415,-0.0375,-0.0323,-0.0245,-0.0148,-0.0061,-0.003,0.0016,0.0079,0.01,0.0136,0.017,0.0163,0.0221,0.0233,0.0119,0.0121,0.0122,0.0123,0,0,-0.061,-0.0587,-0.0586,-0.0588,-0.0541,-0.0523,-0.0498,-0.0446,-0.0423,-0.0347,-0.0302,-0.0195,-0.0143,-0.0088,-0.0016,0.0051,0.011,0.0093,0.01,0.0134,0.0262,0.0272,0.0286,0.0152,0.0154,0.0155,0.0286,0,-0.0642,-0.0655,-0.0626,-0.0634,-0.0635,-0.0581,-0.0561,-0.0507,-0.0447,-0.039,-0.0284,-0.0215,-0.0163,-0.0123,-0.005,0.0074,0.0138,0.007,0.0274,0.028,0.028,0.03,0.0258,0.0371,0.0298,0.03,0.0301,0,-0.0671,-0.0677,-0.0697,-0.0685,-0.0679,-0.0674,-0.063,-0.0601,-0.0506,-0.0457,-0.0371,-0.0287,-0.0176,-0.0136,0.0063,0.0014,0.0122,0.0215,0.0223,0.0272,0.0312,0.0371,0.0395,0.0322,0.032,0.0319,0.0317,0,-0.0722,-0.0723,-0.0745,-0.0741,-0.0716,-0.0714,-0.0697,-0.0623,-0.0592,-0.0497,-0.046,-0.032,-0.0238,-0.0092,0.009,0.008,0.0305,0.0327,0.0437,0.0438,0.0465,0.0465,0.0462,0.0462,0.0462,0.0462,0.0461,0,-0.0762,-0.0778,-0.0776,-0.0787,-0.0809,-0.077,-0.0766,-0.0725,-0.0655,-0.0609,-0.0501,-0.0429,-0.0222,-0.0069,0.0081,0.0293,0.0307,0.0434,0.048,0.043,0.0426,0.0436,0.0431,0.0467,0.0465,0.0465,0.0464,0,-0.0807,-0.0806,-0.0832,-0.0832,-0.0835,-0.0849,-0.0827,-0.0814,-0.0747,-0.0685,-0.0659,-0.049,-0.0291,-0.009,0.0171,0.0291,0.0487,0.0557,0.047,0.0503,0.0565,0.0554,0.069,0.0692,0.0693,0.0695,0.0695,0,-0.0827,-0.0849,-0.0876,-0.0898,-0.0902,-0.0916,-0.0921,-0.0867,-0.0844,-0.0712,-0.0682,-0.0489,-0.0334,0.0027,0.0268,0.0528,0.0542,0.0637,0.0617,0.0561,0.0592,0.0579,0.0566,0.0615,0.0615,0.0615,0.0616,0,-0.0865,-0.0877,-0.09,-0.0956,-0.0979,-0.0997,-0.0996,-0.0991,-0.0908,-0.0839,-0.0701,-0.0568,-0.0233,0.0048,0.0367,0.0515,0.0586,0.0648,0.0648,0.0551,0.0498,0.0525,0.0514,0.0617,0.0617,0.0617,0.0617,0.0617,-0.0885,-0.0917,-0.0956,-0.1003,-0.1037,-0.1062,-0.1068,-0.1043,-0.0993,-0.0867,-0.0728,-0.051,-0.024,0.0206,0.0432,0.0635,0.0641,0.0697,0.0694,0.0691,0.0647,0.0597,0.0726,0.0726,0.0727,0.0727,0.0727,0,-0.0905,-0.0943,-0.0997,-0.105,-0.1092,-0.1097,-0.11,-0.1078,-0.1016,-0.0871,-0.0715,-0.0408,-0.0096,0.0178,0.0496,0.0691,0.0675,0.072,0.0661,0.0658,0.0656,0.0608,0.0679,0.0679,0.0679,0.068,0,0,-0.0914,-0.0969,-0.1001,-0.1078,-0.1115,-0.114,-0.1136,-0.1086,-0.0987,-0.0835,-0.0668,-0.0436,-0.0095,0.0121,0.0365,0.053,0.0541,0.0542,0.0561,0.0459,0.0455,0.0624,0.0544,0,0,0,0,0]}],[{"header":{"parameterUnit":"m.s-1","parameterCategory":2,"la1":30.2991,"la2":30.254,"lo1":-89.0895,"lo2":-89.0444,"dy":0.0017,"dx":0.0017,"nx":28,"ny":28,"refTime":"2026-01-05T03:00:00:Z","depth":"4","parameterNumber":2,"parameterNumberName":"U-component_of_CURRENTS"},"data":[0,0,0,0,0,0,0,0,0,0,0,0,0,0,0,0,0,0,0,0,0,0,0,0,0,0,0,0,0,0,0,0,0,0,0,0,0,0,0,0,0,0,0,0,0,0,0,0,0,0,0,0,0,0,0,0,0,0,-0.1662,-0.1663,0,-0.1692,-0.1692,-0.1693,-0.1713,-0.1713,-0.1713,-0.1714,-0.1749,-0.175,-0.1751,0,0,0,0,0,0,0,0,0,0,0,0,0,-0.1614,-0.1615,-0.1662,-0.1663,-0.1663,-0.1692,-0.1692,-0.1693,-0.1713,-0.1713,-0.1714,-0.1714,-0.1749,-0.175,-0.1751,0,0,0,0,0,0,0,0,0,0,0,0,0,-0.1638,-0.1615,-0.1662,-0.1677,-0.1678,-0.1692,-0.1692,-0.1693,-0.1713,-0.1713,-0.1714,-0.1714,-0.1748,-0.175,-0.1751,-0.1753,0,0,-0.1754,-0.1755,0,0,0,0,0,0,0,0,-0.1637,-0.164,-0.1674,-0.1676,-0.1678,-0.1699,-0.1688,-0.1713,-0.1713,-0.17,-0.1714,-0.1714,-0.1733,-0.1735,-0.174,-0.1755,-0.1756,-0.1754,-0.1755,-0.1756,-0.1756,0,0,0,0,0,0,0,-0.1635,-0.1639,-0.1674,-0.1675,-0.1677,-0.1679,-0.1683,-0.1693,-0.1714,-0.1701,-0.1702,-0.1706,-0.1734,-0.1739,-0.1741,-0.1757,-0.1754,-0.1755,-0.1756,-0.1757,-0.1837,-0.1838,0,0,0,0,0,0,-0.1632,-0.1637,-0.1673,-0.1675,-0.1658,-0.168,-0.1684,-0.1692,-0.1714,-0.1718,-0.1706,-0.1707,-0.1737,-0.174,-0.1742,-0.1813,-0.1756,-0.1757,-0.1757,-0.1835,-0.1837,-0.1838,0,0,0,0,0,0,-0.1631,-0.1635,-0.1672,-0.1656,-0.1661,-0.168,-0.1689,-0.1692,-0.1725,-0.1718,-0.1722,-0.1738,-0.1737,-0.1741,-0.178,-0.1812,-0.1757,-0.1758,-0.1833,-0.1836,-0.1838,-0.1912,0,0,0,0,0,0,-0.163,-0.1635,-0.1656,-0.1657,-0.1662,-0.1699,-0.1689,-0.1693,-0.1725,-0.1728,-0.1746,-0.1748,-0.1737,-0.1779,-0.1781,-0.1813,-0.1759,-0.1832,-0.1834,-0.1837,-0.1908,-0.1917,-0.1924,0,0,0,0,0,-0.1628,-0.1646,-0.1656,-0.1662,-0.1685,-0.17,-0.1704,-0.1717,-0.1727,-0.1747,-0.1764,-0.1749,-0.1797,-0.1781,-0.1784,-0.1816,-0.183,-0.1834,-0.1837,-0.1904,-0.1915,-0.1924,0,0,0,0,0,0,-0.1635,-0.165,-0.1661,-0.1684,-0.1703,-0.1704,-0.1727,-0.1737,-0.1766,-0.1777,-0.1771,-0.1775,-0.1819,-0.1809,-0.1792,-0.1846,-0.181,-0.1814,-0.186,-0.187,-0.1878,-0.1873,-0.176,0,0,0,0,0,-0.1647,-0.1668,-0.168,-0.1703,-0.1715,-0.1729,-0.1744,-0.1754,-0.1771,-0.1786,-0.1802,-0.1816,-0.1829,-0.1845,-0.1853,-0.1889,-0.1854,-0.191,-0.1918,-0.1925,-0.1923,-0.1901,-0.1907,-0.1849,-0.1849,-0.1849,0,0,-0.1656,-0.1668,-0.1681,-0.1708,-0.1723,-0.1748,-0.174,-0.177,-0.18,-0.1784,-0.1843,-0.1848,-0.1845,-0.1882,-0.1901,-0.1883,-0.1924,-0.1929,-0.1935,-0.1929,-0.1905,-0.1911,-0.1915,-0.1851,-0.1851,-0.185,0,0,-0.167,-0.1698,-0.1716,-0.1739,-0.177,-0.1781,-0.1798,-0.1824,-0.1848,-0.1896,-0.1891,-0.1917,-0.1949,-0.1949,-0.1951,-0.2009,-0.1966,-0.2018,-0.2059,-0.2039,-0.2043,-0.2047,-0.2009,-0.2008,-0.2024,-0.2024,-0.2024,0,-0.1682,-0.1703,-0.1726,-0.1751,-0.1771,-0.1801,-0.1825,-0.1859,-0.1898,-0.1914,-0.1927,-0.1968,-0.1976,-0.2,-0.2027,-0.2027,-0.2002,-0.2024,-0.2049,-0.2051,-0.2053,-0.2013,-0.2012,-0.2028,-0.2028,-0.2027,-0.2027,0,-0.1695,-0.1731,-0.1747,-0.179,-0.182,-0.1847,-0.1889,-0.1931,-0.1967,-0.1986,-0.2034,-0.2049,-0.2062,-0.2081,-0.2078,-0.2102,-0.2074,-0.2059,-0.2021,-0.2063,-0.2019,-0.2016,-0.2034,-0.2032,-0.2031,-0.203,0,0,-0.1658,-0.1739,-0.1745,-0.1773,-0.1841,-0.1858,-0.1925,-0.1966,-0.1995,-0.2055,-0.208,-0.213,-0.2133,-0.2136,-0.2137,-0.214,-0.2143,-0.2118,-0.2115,-0.2076,-0.2087,-0.1957,-0.194,-0.2134,-0.2134,-0.2134,-0.2049,0,-0.1657,-0.1706,-0.175,-0.1807,-0.1832,-0.1891,-0.1942,-0.1994,-0.2037,-0.2076,-0.2107,-0.2135,-0.2156,-0.2164,-0.2175,-0.2148,-0.2138,-0.2166,-0.2056,-0.2052,-0.1927,-0.1933,-0.2134,-0.2046,-0.2045,-0.2045,-0.2044,0,-0.1637,-0.1676,-0.1728,-0.1805,-0.1821,-0.1868,-0.1933,-0.1984,-0.2049,-0.2081,-0.2122,-0.2141,-0.217,-0.2174,-0.2155,-0.2173,-0.2138,-0.2117,-0.2113,-0.196,-0.1915,-0.1996,-0.2038,-0.2038,-0.2039,-0.2039,-0.2039,0,-0.1568,-0.1652,-0.1692,-0.1721,-0.1818,-0.1854,-0.1906,-0.1979,-0.2013,-0.2079,-0.2096,-0.2137,-0.2146,-0.2133,-0.2113,-0.2132,-0.2067,-0.2073,-0.1918,-0.1908,-0.2019,-0.2016,-0.2039,-0.2039,-0.2039,-0.204,-0.204,0,-0.1524,-0.1558,-0.1669,-0.1688,-0.1733,-0.1817,-0.1865,-0.1921,-0.199,-0.2007,-0.2089,-0.2087,-0.2139,-0.2116,-0.2097,-0.1986,-0.2045,-0.1912,-0.1874,-0.2052,-0.2055,-0.2015,-0.2014,-0.2036,-0.2037,-0.2038,-0.2038,0,-0.1438,-0.1514,-0.1566,-0.1672,-0.1704,-0.1736,-0.1836,-0.1859,-0.1942,-0.1962,-0.1982,-0.2044,-0.2007,-0.2024,-0.1983,-0.1932,-0.1859,-0.1801,-0.1976,-0.1951,-0.1719,-0.1723,-0.1614,-0.1609,-0.1604,-0.16,-0.1597,0,-0.1396,-0.1417,-0.1533,-0.1561,-0.1613,-0.1678,-0.1713,-0.1818,-0.1836,-0.1907,-0.1891,-0.19,-0.192,-0.1749,-0.1795,-0.1722,-0.171,-0.1664,-0.1715,-0.17,-0.1674,-0.1685,-0.1695,-0.159,-0.1589,-0.1588,-0.1586,0,-0.1311,-0.1369,-0.141,-0.1468,-0.1517,-0.1559,-0.1617,-0.1612,-0.1708,-0.1801,-0.174,-0.1712,-0.1661,-0.1638,-0.1588,-0.1547,-0.1697,-0.1617,-0.1627,-0.1674,-0.1669,-0.1651,-0.1666,-0.1571,-0.1573,-0.1574,-0.1575,0,-0.1247,-0.1255,-0.1319,-0.1352,-0.1412,-0.1411,-0.1461,-0.1468,-0.1497,-0.1585,-0.1552,-0.1567,-0.1625,-0.1542,-0.1497,-0.1446,-0.1435,-0.1406,-0.1427,-0.1445,-0.1433,-0.1406,-0.1177,0,0,0,0,0,-0.1174,-0.1167,-0.1194,-0.1222,-0.1275,-0.1302,-0.138,-0.1433,-0.1521,-0.143,-0.1488,-0.1433,-0.1369,-0.1387,-0.1296,-0.1427,-0.1447,-0.1318,-0.1426,-0.1483,-0.1501,-0.1507,0,0,0,0,0,0,-0.1126,-0.1148,-0.115,-0.1102,-0.1091,-0.1127,-0.1167,-0.1231,-0.1195,-0.1291,-0.1258,-0.134,-0.1296,-0.138,-0.1259,-0.1265,-0.1303,-0.1344,-0.134,-0.1473,-0.1489,-0.1504,-0.1516,0,0,0,0,0]},{"header":{"parameterUnit":"m.s-1","parameterCategory":2,"la1":30.2991,"la2":30.254,"lo1":-89.0895,"lo2":-89.0444,"dy":0.0017,"dx":0.0017,"nx":28,"ny":28,"refTime":"2026-01-05T03:00:00:Z","depth":"4","parameterNumber":3,"parameterNumberName":"V-component_of_CURRENTS"},"data":[0,0,0,0,0,0,0,0,0,0,0,0,0,0,0,0,0,0,0,0,0,0,0,0,0,0,0,0,0,0,0,0,0,0,0,0,0,0,0,0,0,0,0,0,0,0,0,0,0,0,0,0,0,0,0,0,0,0,-0.0288,-0.0288,0,-0.0224,-0.0223,-0.0223,-0.0187,-0.0187,-0.0187,-0.0186,-0.0087,-0.0084,-0.0082,0,0,0,0,0,0,0,0,0,0,0,0,0,-0.0324,-0.0324,-0.0289,-0.0288,-0.0287,-0.0224,-0.0223,-0.0223,-0.0187,-0.0187,-0.0187,-0.0186,-0.0088,-0.0085,-0.0082,0,0,0,0,0,0,0,0,0,0,0,0,0,-0.029,-0.0324,-0.0289,-0.0262,-0.0258,-0.0224,-0.0223,-0.0222,-0.0187,-0.0187,-0.0186,-0.0186,-0.0089,-0.0085,-0.0081,-0.0061,0,0,-0.0069,-0.0068,0,0,0,0,0,0,0,0,-0.0292,-0.0288,-0.0266,-0.0263,-0.026,-0.0213,-0.0199,-0.0167,-0.0187,-0.0214,-0.0186,-0.0186,-0.0126,-0.0119,-0.0108,-0.0056,-0.0052,-0.0069,-0.0067,-0.0065,-0.0064,0,0,0,0,0,0,0,-0.0294,-0.029,-0.0263,-0.0265,-0.0261,-0.0233,-0.0229,-0.0193,-0.0171,-0.0212,-0.0209,-0.0202,-0.0124,-0.0112,-0.0105,-0.0051,-0.0069,-0.0066,-0.0064,-0.0062,0.0043,0.0043,0,0,0,0,0,0,-0.0305,-0.0293,-0.0265,-0.0261,-0.0276,-0.0233,-0.0228,-0.0228,-0.0172,-0.0164,-0.0202,-0.02,-0.0118,-0.011,-0.0101,-0.0061,-0.0065,-0.0062,-0.0059,0.0042,0.0043,0.0043,0,0,0,0,0,0,-0.0306,-0.0304,-0.0268,-0.0275,-0.0269,-0.0233,-0.0234,-0.0227,-0.0217,-0.0165,-0.0156,-0.0199,-0.0118,-0.0107,-0.0068,-0.0057,-0.006,-0.0056,0.0042,0.0042,0.0043,0.0013,0,0,0,0,0,0,-0.0308,-0.0305,-0.0311,-0.0276,-0.0269,-0.025,-0.0234,-0.0226,-0.0213,-0.021,-0.0159,-0.015,-0.0117,-0.0074,-0.0065,-0.0052,-0.0053,0.0041,0.0042,0.0043,0.0013,0.0012,0.0012,0,0,0,0,0,-0.0309,-0.0316,-0.0312,-0.0309,-0.0279,-0.025,-0.0244,-0.0217,-0.0213,-0.0208,-0.0173,-0.0151,-0.0061,-0.0071,-0.0059,-0.0045,0.0041,0.0042,0.0043,0.0014,0.0013,0.0012,0,0,0,0,0,0,-0.0334,-0.0312,-0.0307,-0.0307,-0.0284,-0.0244,-0.0239,-0.0223,-0.0192,-0.0191,-0.0146,-0.0133,-0.0095,-0.0067,-0.0079,-0.0012,-0.0006,-0.0003,-0.0032,-0.0033,-0.0034,-0.0053,-0.005,0,0,0,0,0,-0.0345,-0.0347,-0.0316,-0.0318,-0.0309,-0.0277,-0.0265,-0.0247,-0.0214,-0.0201,-0.0165,-0.0123,-0.0081,-0.0057,-0.0019,0.0017,0.0046,0.0034,0.0033,0.0032,0.0025,0.0091,0.0095,0.0047,0.0047,0.0047,0,0,-0.0356,-0.0344,-0.0346,-0.0324,-0.0306,-0.0295,-0.0269,-0.0253,-0.024,-0.0194,-0.0168,-0.0127,-0.0073,-0.0032,-0.0012,-0.0007,0.006,0.0034,0.0032,0.0025,0.0092,0.0097,0.0101,0.0048,0.0048,0.0047,0,0,-0.0375,-0.037,-0.0375,-0.0358,-0.0333,-0.0312,-0.0311,-0.0274,-0.0254,-0.0223,-0.0183,-0.0135,-0.0082,-0.0031,-0.0001,0.0017,0.0051,0.0027,0.0013,0.0077,0.0081,0.0086,0.0118,0.0126,0.003,0.003,0.003,0,-0.0391,-0.0395,-0.0371,-0.0368,-0.0358,-0.0324,-0.0323,-0.0295,-0.025,-0.0229,-0.0221,-0.0124,-0.0078,-0.0013,-0.0007,0.0017,0.0043,0.001,0.0076,0.0081,0.0086,0.0118,0.0127,0.0028,0.0029,0.0029,0.0029,0,-0.0407,-0.0412,-0.0413,-0.0402,-0.0387,-0.0381,-0.0342,-0.0323,-0.0299,-0.0264,-0.0204,-0.0137,-0.008,-0.0052,-0.0025,0.0036,0.0039,0.0064,0.0075,0.0088,0.0122,0.0132,0.0027,0.0027,0.0027,0.0028,0,0,-0.0437,-0.0428,-0.043,-0.0435,-0.0406,-0.0396,-0.0375,-0.0339,-0.0325,-0.0267,-0.0236,-0.0149,-0.0113,-0.0077,-0.0025,0.0033,0.0092,0.0054,0.0058,0.0079,0.0209,0.0172,0.0179,0.0127,0.0129,0.013,0.0214,0,-0.0459,-0.0473,-0.0455,-0.0466,-0.0469,-0.0434,-0.0419,-0.038,-0.034,-0.03,-0.0214,-0.0166,-0.0121,-0.0095,-0.0027,0.0061,0.0117,0.0065,0.0198,0.0201,0.0162,0.0189,0.0136,0.0222,0.0224,0.0225,0.0227,0,-0.0477,-0.0486,-0.0506,-0.0504,-0.0502,-0.0503,-0.0477,-0.0456,-0.0385,-0.0351,-0.0281,-0.022,-0.0126,-0.0095,0.0066,0.0027,0.0109,0.0178,0.0184,0.0165,0.0182,0.021,0.0244,0.0243,0.0242,0.024,0.0239,0,-0.051,-0.0519,-0.0542,-0.0541,-0.053,-0.0535,-0.0527,-0.0475,-0.0456,-0.0386,-0.0365,-0.0244,-0.0187,-0.0063,0.0074,0.0072,0.0241,0.0264,0.0309,0.0307,0.0327,0.0322,0.0377,0.0377,0.0377,0.0377,0.0377,0,-0.0532,-0.0551,-0.0567,-0.0578,-0.0606,-0.0581,-0.0591,-0.0562,-0.0516,-0.049,-0.0399,-0.0351,-0.0176,-0.006,0.0063,0.0206,0.024,0.0305,0.0332,0.031,0.0302,0.0333,0.0327,0.038,0.0379,0.0379,0.0378,0,-0.0556,-0.0566,-0.0597,-0.0613,-0.0624,-0.0644,-0.0649,-0.0646,-0.0603,-0.0568,-0.0549,-0.0419,-0.0271,-0.0106,0.0101,0.0184,0.0329,0.0373,0.0314,0.0337,0.0351,0.0343,0.0429,0.0428,0.0428,0.0428,0.0427,0,-0.0565,-0.0586,-0.0635,-0.0665,-0.0679,-0.0707,-0.0724,-0.0694,-0.0684,-0.0603,-0.0584,-0.0449,-0.0347,-0.0089,0.008,0.03,0.0334,0.0392,0.0392,0.0342,0.036,0.0352,0.0344,0.0427,0.0427,0.0426,0.0426,0,-0.0582,-0.0609,-0.0637,-0.0706,-0.0744,-0.0775,-0.0794,-0.0792,-0.0742,-0.071,-0.0597,-0.0459,-0.0298,-0.0095,0.0069,0.0232,0.0345,0.0389,0.0391,0.0392,0.034,0.0357,0.035,0.0425,0.0425,0.0425,0.0425,0,-0.0596,-0.0627,-0.0678,-0.0731,-0.0789,-0.0822,-0.0828,-0.0801,-0.0779,-0.0683,-0.0645,-0.0463,-0.0347,-0.013,0.0027,0.0171,0.0212,0.0253,0.0263,0.0267,0.0191,0.01,0.0136,0,0,0,0,0,-0.0602,-0.064,-0.0697,-0.0756,-0.0816,-0.0843,-0.0861,-0.0852,-0.0811,-0.0736,-0.0685,-0.053,-0.0288,-0.018,-0.0039,0.0008,0.0222,0.0174,0.027,0.0417,0.0419,0.0354,0,0,0,0,0,0,-0.0607,-0.0665,-0.0694,-0.0765,-0.0808,-0.0862,-0.0873,-0.0846,-0.0793,-0.0732,-0.0598,-0.0515,-0.0278,-0.0366,-0.0041,0.0003,0.0078,0.0294,0.0296,0.0416,0.0418,0.0419,0.0353,0,0,0,0,0]}]]